Weather History for PAGK - March, 2013

Change the Weather History Date:

Saturday, March 2, 2013

  Actual Average Record
Temperature  
Mean Temperature 15 °F -  
Max Temperature 30 °F 20 °F 44 °F (1958)
Min Temperature -4 °F -4 °F -48 °F (1956)
Degree Days  
Heating Degree Days 50    
Moisture  
Dew Point 5 °F    
Average Humidity 78    
Maximum Humidity 92    
Minimum Humidity 44    
Precipitation  
Precipitation 0.00 in - - ()
Snow  
Snow 0.00 in - - ()
Snow Depth 11.00 in    
Sea Level Pressure  
Sea Level Pressure 30.10 in    
Wind  
Wind Speed 3 mph (NW)    
Max Wind Speed 7 mph    
Max Gust Speed -    
Visibility 10 miles    
Events      
Averages and records for this station are not official NWS values.
T = Trace of Precipitation, MM = Missing Value Source: NWS Daily Summary

Daily Weather History Graph

Daily Weather History Graph

Search for Another Location

Airport or City:

Trip Planner

Search our weather history database for the weather conditions in past years. The results will help you decide how hot, cold, wet, or windy it might be!

Date:

Astronomy

Mar. 02, 2013 Rise Set
Actual Time 7:39 AM AKST 6:09 PM AKST
Civil Twilight 6:55 AM AKST 6:53 PM AKST
Nautical Twilight 6:03 AM AKST 7:45 PM AKST
Astronomical Twilight 5:10 AM AKST 8:38 PM AKST
Moon 12:34 AM AKST (3/2) 8:26 AM AKST (3/2)
Length of Visible Light 11h 58m
Length of Day
10h 29m
Waning Gibbous, 72% of the Moon is Illuminated
Mar 2
Waning Gibbous
Mar 4
Last Quarter
Mar 11
New
Mar 19
First Quarter
Mar 27
Full

Hourly Weather History & Observations

Time (AKST) Temp. Windchill Dew Point Humidity Pressure Visibility Wind Dir Wind Speed Gust Speed Precip Events Conditions
12:53 AM 12.0 °F 1.5 °F 9.0 °F 88% 30.01 in 10.0 mi NW 6.9 mph - N/A   Clear
1:53 AM 9.0 °F 2.4 °F 7.0 °F 92% 30.02 in 10.0 mi WNW 3.5 mph - N/A   Clear
3:53 AM 5.0 °F -5.6 °F 3.0 °F 92% 30.04 in 10.0 mi WNW 5.8 mph - N/A   Clear
4:53 AM 3.9 °F -5.3 °F 1.9 °F 91% 30.04 in 10.0 mi NW 4.6 mph - N/A   Clear
5:53 AM 1.9 °F - -0.0 °F 91% 30.05 in 10.0 mi Calm Calm - N/A   Clear
5:59 AM 1.0 °F - -0.9 °F 91% 29.92 in 10.0 mi Calm Calm - N/A   Mostly Cloudy
6:53 AM 3.9 °F -6.9 °F 1.0 °F 88% 30.06 in 10.0 mi NW 5.8 mph - N/A   Mostly Cloudy
7:53 AM 1.9 °F -7.6 °F -2.0 °F 83% 30.07 in 10.0 mi WNW 4.6 mph - N/A   Mostly Cloudy
8:53 AM 5.0 °F -4.1 °F 1.9 °F 87% 30.07 in 10.0 mi NNW 4.6 mph - N/A   Mostly Cloudy
9:53 AM 10.0 °F 1.8 °F 6.1 °F 84% 30.07 in 10.0 mi North 4.6 mph - N/A   Mostly Cloudy
10:53 AM 15.1 °F 9.4 °F 8.1 °F 74% 30.08 in 10.0 mi West 3.5 mph - N/A   Scattered Clouds
11:53 AM 19.0 °F 13.9 °F 9.0 °F 65% 30.10 in 10.0 mi NNW 3.5 mph - N/A   Scattered Clouds
12:53 PM 23.0 °F 18.4 °F 10.9 °F 60% 30.10 in 10.0 mi North 3.5 mph - N/A   Scattered Clouds
1:53 PM 23.0 °F 18.4 °F 12.0 °F 63% 30.11 in 10.0 mi SSE 3.5 mph - N/A   Scattered Clouds
2:53 PM 26.1 °F - 12.9 °F 58% 30.10 in 10.0 mi Calm Calm - N/A   Scattered Clouds
3:53 PM 27.0 °F - 14.0 °F 58% 30.10 in 10.0 mi Calm Calm - N/A   Scattered Clouds
4:53 PM 26.1 °F - 14.0 °F 60% 30.11 in 10.0 mi Calm Calm - N/A   Scattered Clouds
5:53 PM 21.9 °F 17.2 °F 12.0 °F 66% 30.13 in 10.0 mi SE 3.5 mph - N/A   Partly Cloudy
6:53 PM 14.0 °F - 8.1 °F 77% 30.15 in 10.0 mi Calm Calm - N/A   Partly Cloudy
7:53 PM 9.0 °F - 6.1 °F 88% 30.18 in 10.0 mi Calm Calm - N/A   Partly Cloudy
8:53 PM 6.1 °F - 1.9 °F 83% 30.20 in 10.0 mi Calm Calm - N/A   Clear
9:26 PM 1.9 °F - -0.9 °F 88% 30.03 in 10.0 mi Calm Calm - N/A   Clear
9:53 PM 1.9 °F -5.6 °F -0.9 °F 88% 30.21 in 10.0 mi NE 3.5 mph - N/A   Clear
10:53 PM -0.0 °F - -2.9 °F 88% 30.23 in 10.0 mi Calm Calm - N/A   Clear
11:53 PM -4.0 °F - -7.1 °F 87% 30.25 in 10.0 mi Calm Calm - N/A   Clear